Weather History for Ft Lauderdale, FL

Change the Weather History Date:

Monday, January 21, 2013

  Actual Average Record
Temperature  
Mean Temperature 75 °F 69 °F  
Max Temperature 81 °F 76 °F 86 °F (1925)
Min Temperature 68 °F 62 °F 32 °F (1971)
Degree Days  
Heating Degree Days 0 1  
Month to date heating degree days 2 37  
Since 1 July heating degree days 69  
Cooling Degree Days 10 5  
Month to date cooling degree days 192 114  
Year to date cooling degree days 192 114  
Growing Degree Days 24 (Base 50)    
Moisture  
Dew Point 66 °F    
Average Humidity 83    
Maximum Humidity 97    
Minimum Humidity 69    
Precipitation  
Precipitation T in 0.16 in 1.50 in (1956)
Month to date precipitation 0.96 1.89  
Year to date precipitation 0.96 1.89  
Snow  
Snow 0.00 in - - ()
Month to date snowfall 0.0  
Since 1 July snowfall 0.0  
Snow Depth 0.00 in    
Sea Level Pressure  
Sea Level Pressure 30.02 in    
Wind  
Wind Speed 6 mph (WSW)    
Max Wind Speed 14 mph    
Max Gust Speed 18 mph    
Visibility 10 miles    
Events      
T = Trace of Precipitation, MM = Missing Value Source: NWS Daily Summary

Daily Weather History Graph

Daily Weather History Graph

Search for Another Location

Airport:

Trip Planner

Search our weather history database for the weather conditions in past years. The results will help you decide how hot, cold, wet, or windy it might be!

Date:

Astronomy

Jan. 21, 2013 Rise Set
Actual Time 7:08 AM EST 5:55 PM EST
Civil Twilight 6:44 AM EST 6:20 PM EST
Nautical Twilight 6:15 AM EST 6:48 PM EST
Astronomical Twilight 5:48 AM EST 7:16 PM EST
Moon 1:36 PM EST (1/21) 2:34 AM EST (1/21)
Length of Visible Light 11h 36m
Length of Day
10h 47m
Waxing Gibbous, 75% of the Moon is Illuminated
Jan 21
Waxing Gibbous
Jan 26
Full
Feb 3
Last Quarter
Feb 10
New
Feb 17
First Quarter

Hourly Weather History & Observations

Time (EST) Temp. Dew Point Humidity Pressure Visibility Wind Dir Wind Speed Gust Speed Precip Events Conditions
12:53 AM 69.1 °F 66.0 °F 90% 30.04 in 10.0 mi North 5.8 mph - N/A   Mostly Cloudy
1:53 AM 69.1 °F 66.9 °F 93% 30.04 in 10.0 mi NNW 3.5 mph - N/A   Mostly Cloudy
2:53 AM 69.1 °F 66.0 °F 90% 30.02 in 10.0 mi NNE 3.5 mph - N/A   Mostly Cloudy
3:53 AM 69.1 °F 66.0 °F 90% 30.02 in 10.0 mi North 3.5 mph - N/A   Scattered Clouds
4:53 AM 69.1 °F 66.0 °F 90% 30.01 in 10.0 mi Calm Calm - N/A   Scattered Clouds
5:53 AM 70.0 °F 66.0 °F 87% 30.01 in 10.0 mi East 5.8 mph - N/A   Scattered Clouds
6:53 AM 69.1 °F 66.0 °F 90% 30.02 in 10.0 mi Calm Calm - N/A   Scattered Clouds
7:18 AM 69.8 °F 66.2 °F 88% 30.04 in 10.0 mi Calm Calm - N/A   Mostly Cloudy
7:47 AM 69.8 °F 66.2 °F 88% 30.04 in 10.0 mi South 3.5 mph - N/A   Mostly Cloudy
7:53 AM 70.0 °F 68.0 °F 93% 30.04 in 10.0 mi Calm Calm - N/A   Mostly Cloudy
8:39 AM 73.4 °F 68.0 °F 83% 30.06 in 10.0 mi Calm Calm - N/A   Overcast
8:53 AM 73.9 °F 68.0 °F 82% 30.06 in 10.0 mi Calm Calm - N/A   Mostly Cloudy
9:23 AM 75.2 °F 66.2 °F 73% 30.06 in 10.0 mi ESE 8.1 mph - N/A   Mostly Cloudy
9:53 AM 75.9 °F 68.0 °F 76% 30.07 in 10.0 mi ESE 9.2 mph - N/A   Mostly Cloudy
10:53 AM 77.0 °F 68.0 °F 74% 30.07 in 10.0 mi SE 9.2 mph - N/A   Overcast
11:53 AM 79.0 °F 69.1 °F 72% 30.05 in 10.0 mi SE 10.4 mph - N/A   Mostly Cloudy
12:53 PM 77.0 °F 66.9 °F 71% 30.01 in 10.0 mi SSE 9.2 mph - N/A   Scattered Clouds
1:53 PM 78.1 °F 68.0 °F 71% 29.99 in 10.0 mi South 12.7 mph - 0.00 in   Partly Cloudy
2:53 PM 77.0 °F 66.9 °F 71% 29.97 in 10.0 mi SSE 10.4 mph - N/A   Mostly Cloudy
3:53 PM 77.0 °F 66.0 °F 69% 29.97 in 10.0 mi South 9.2 mph - N/A   Mostly Cloudy
4:53 PM 77.0 °F 66.9 °F 71% 29.97 in 10.0 mi SSW 8.1 mph - 0.00 in   Scattered Clouds
5:53 PM 75.9 °F 66.9 °F 74% 29.99 in 10.0 mi South 5.8 mph - N/A   Scattered Clouds
6:53 PM 75.9 °F 64.0 °F 67% 30.00 in 10.0 mi WSW 9.2 mph - N/A   Overcast
7:53 PM 73.9 °F 64.0 °F 71% 30.01 in 10.0 mi West 6.9 mph - N/A   Overcast
8:41 PM 73.4 °F 64.4 °F 73% 30.02 in 10.0 mi NW 6.9 mph - N/A   Overcast
8:44 PM 73.4 °F 64.4 °F 73% 30.02 in 10.0 mi NW 9.2 mph - N/A   Overcast
8:53 PM 72.0 °F 64.0 °F 76% 30.03 in 10.0 mi NW 9.2 mph - N/A   Overcast
9:53 PM 70.0 °F 62.1 °F 76% 30.03 in 10.0 mi NW 6.9 mph - N/A   Scattered Clouds
10:53 PM 69.1 °F 63.0 °F 81% 30.04 in 10.0 mi WNW 6.9 mph - N/A   Clear
11:53 PM 68.0 °F 64.0 °F 87% 30.03 in 10.0 mi NNW 8.1 mph - N/A   Partly Cloudy